Regional Weather Roundup
Issued by NWS Little Rock, AR

Home | Current Version | Previous Version | Text Only | Print | Product List | Glossary On
Versions: 1 2 3 4 5 6 7 8 9 10 11 12 13 14 15 16 17 18 19 20 21 22 23 24 25 26 27 28 29 30 31 32 33 34 35 36 37
000
ASUS44 KLZK 220505
RWRLZK

WEATHER ROUNDUP FOR ARKANSAS
NATIONAL WEATHER SERVICE LITTLE ROCK AR
1200 AM CDT WED OCT 22 2014

NOTE: "FAIR" INDICATES FEW OR NO CLOUDS BELOW 12,000 FEET WITH NO
SIGNIFICANT WEATHER AND/OR OBSTRUCTIONS TO VISIBILITY.

ARZ001-003-010-029-220600-
NORTHWEST ARKANSAS

CITY           SKY/WX    TMP DP  RH WIND       PRES   REMARKS
FAYETTEVILLE   CLEAR     50  50 100 CALM      30.13S
FORT SMITH     CLEAR     61  58  90 NE6       30.09S
HARRISON       CLEAR     53  48  83 S3        30.14S
BENTONVILLE    CLEAR     59  50  72 SE3       30.12F
ROGERS         CLEAR     58  55  90 E8        30.13F
SILOAM SPGS    CLEAR     57  48  72 E3        30.13S
HIGHFILL       CLEAR     58  53  84 CALM      30.12S HAZE
$$

ARZ004-005-016-220600-
NORTH CENTRAL ARKANSAS

CITY           SKY/WX    TMP DP  RH WIND       PRES   REMARKS
BATESVILLE     CLEAR     55  48  76 NE8       30.13R
FLIPPIN        CLEAR     48  43  81 CALM      30.15R
MTN HOME       CLEAR     56  47  71 NE3       30.13R
$$

ARZ040-041-220600-
WEST CENTRAL ARKANSAS

CITY           SKY/WX    TMP DP  RH WIND       PRES   REMARKS
MENA             N/A     57  55  94 CALM      30.12S
MOUNT IDA      CLEAR     55  53  93 CALM      30.09S FOG
$$

ARZ009-017-025-026-028-220600-
NORTHEAST ARKANSAS

CITY           SKY/WX    TMP DP  RH WIND       PRES   REMARKS
CORNING        FAIR      54  48  82 NE8       30.15S
JONESBORO      CLEAR     57  48  72 NE8       30.13S
NEWPORT        CLEAR     53  50  90 NE6       30.14S
WALNUT RIDGE   CLEAR     54  45  71 N6        30.14R
BLYTHEVILLE    CLEAR     55  48  77 NE6       30.13S
$$

ARZ022-023-033-042-044-220600-
CENTRAL ARKANSAS

CITY           SKY/WX    TMP DP  RH WIND       PRES   REMARKS
LITTLE ROCK    CLEAR     57  52  83 CALM      30.10F
N LITTLE ROCK  CLEAR     59  51  74 E6        30.10F
JACKSONVILLE   CLEAR     52  50  93 CALM      30.10F
SEARCY         CLEAR     51  50  96 NW3       30.12F
HOT SPRINGS    CLEAR     55  53  93 CALM      30.11R
RUSSELLVILLE   CLEAR     54  53  97 CALM      30.11S
$$

ARZ036-220600-
EAST ARKANSAS

CITY           SKY/WX    TMP DP  RH WIND       PRES   REMARKS
WEST MEMPHIS   CLEAR     56  49  77 NE3       30.10S
$$

ARZ050-053-066-070-073-220600-
SOUTHWEST ARKANSAS

CITY           SKY/WX    TMP DP  RH WIND       PRES   REMARKS
ARKADELPHIA    FAIR      57  57 100 CALM      30.09S FOG
CAMDEN         CLEAR     55  54  94 CALM      30.08F FOG
TEXARKANA      MOCLDY    62  59  90 CALM      30.08S
EL DORADO      CLEAR     56  55  97 CALM      30.09S
DE QUEEN       MOCLDY    65  63  93 CALM      30.07S FOG
$$

ARZ056-057-069-220600-
SOUTHEAST ARKANSAS

CITY           SKY/WX    TMP DP  RH WIND       PRES   REMARKS
PINE BLUFF     CLEAR     54  50  86 CALM      30.10S
STUTTGART      CLEAR     57  46  67 NE6       30.10S
MONTICELLO     CLEAR     57  53  86 CALM      30.09F

$$





USA.gov is the U.S. government's official web portal to all federal, state and local government web resources and services.